User: anonymous   Login
Location: Go?cza
(50.3372°N, 19.9313°E)
Time: 06:22:34
(UTC+00:00)
Language:

Cosmos 2228 Rocket - Orbit

View from above orbital plane
View from above orbital plane
View from above satellite
View from above satellite

Ground track
Ground track

The orbit data is extracted from the following two-line orbital elements,

1 22287U 92094B   24201.90420496  .00000854  00000-0  11152-3 0  9998
2 22287  82.5237 189.2699 0025436 133.3336 227.0003 14.79129391680123
Epoch (UTC): 19 July 2024 21:42:03
Eccentricity: 0.0025436
inclination: 82.5237°
perigee height: 614 km
apogee height: 650 km
right ascension of ascending node: 189.2699°
argument of perigee: 133.3336°
revolutions per day: 14.79129391
mean anomaly at epoch: 227.0003°
orbit number at epoch: 68012

The dashed part of the orbit path shows where the satellite is in the earth's shadow,  

DLR